Date,TemperatureHighF,TemperatureAvgF,TemperatureLowF,DewpointHighF,DewpointAvgF,DewpointLowF,HumidityHigh,HumidityAvg,HumidityLow,PressureMaxIn,PressureMinIn,WindSpeedMaxMPH,WindSpeedAvgMPH,GustSpeedMaxMPH,PrecipitationSumIn
2013-3-1,48.6,40.2,30.1,32.2,28.7,26.7,88,65,43,29.91,29.83,15,3,15,0.00
2013-3-2,47.4,39.1,30.4,30.0,26.3,20.3,87,61,42,29.92,29.80,15,2,15,0.00
2013-3-3,45.1,35.7,28.4,22.9,20.3,17.9,70,54,39,29.98,29.84,19,4,19,0.00
2013-3-4,50.2,37.6,26.7,19.0,16.7,12.6,69,45,24,30.11,29.97,19,3,19,0.00
2013-3-5,50.4,44.1,36.8,44.9,33.8,17.2,97,71,36,30.08,29.55,17,1,17,0.34
2013-3-6,50.1,43.2,38.0,48.9,33.3,25.8,99,70,51,30.01,29.49,30,8,30,0.01
2013-3-7,51.0,42.3,34.3,31.4,29.5,26.7,80,62,45,30.23,30.01,18,5,18,0.00
2013-3-8,54.5,43.6,31.7,29.0,25.9,23.0,79,52,31,30.28,30.13,20,5,20,0.00
2013-3-9,61.7,48.3,34.4,30.6,28.1,25.9,73,48,27,30.33,30.22,14,2,14,0.00
2013-3-10,66.6,53.3,39.3,32.9,26.9,19.2,68,40,18,30.31,30.19,14,1,14,0.00
2013-3-11,68.9,56.3,41.9,54.7,44.8,25.5,89,67,37,30.24,29.92,18,3,18,0.00
2013-3-12,71.2,62.2,51.8,62.7,54.0,33.0,96,77,45,29.94,29.73,20,5,20,0.41
2013-3-13,57.1,47.7,36.8,34.1,27.3,19.7,82,47,26,30.12,29.92,22,5,22,0.00
2013-3-14,52.4,40.9,29.9,22.5,19.0,16.9,63,42,27,30.24,30.10,22,5,22,0.00
2013-3-15,62.1,47.8,31.3,36.0,27.9,19.7,77,48,31,30.18,29.89,14,2,14,0.00
2013-3-16,78.5,64.4,51.2,48.8,44.1,35.8,65,49,34,29.90,29.65,19,3,19,0.00
2013-3-17,67.4,54.5,41.7,53.1,44.5,37.9,95,71,44,30.15,29.81,22,5,22,0.00
2013-3-18,43.9,40.6,37.7,42.3,39.5,36.7,97,96,90,30.18,29.88,19,3,19,0.31
2013-3-19,66.1,51.9,40.9,47.7,35.2,13.5,99,64,21,30.00,29.81,17,4,20,0.01
2013-3-20,55.2,48.0,42.8,23.3,14.8,9.1,45,27,19,30.11,29.77,13,2,13,0.00
2013-3-21,44.6,41.0,37.0,31.2,22.1,9.9,73,49,26,29.80,29.71,20,5,20,0.00
2013-3-22,44.7,44.4,44.2,23.2,21.6,20.0,43,40,38,30.02,30.00,3,0,3,0.00
2013-3-23,53.5,46.1,39.9,30.7,25.9,20.1,64,46,34,30.04,29.90,9,1,9,0.00
2013-3-24,43.8,39.7,36.1,38.5,34.6,28.4,96,83,58,29.93,29.55,19,4,24,0.65
2013-3-25,47.6,40.4,35.9,37.8,30.9,22.2,97,72,39,29.81,29.55,26,4,26,0.00
2013-3-26,47.7,41.8,33.6,29.5,27.3,24.7,75,57,44,30.10,29.81,11,4,15,0.00
2013-3-27,50.7,41.9,31.6,29.2,24.8,20.8,82,53,32,30.22,30.10,24,5,24,0.00
2013-3-28,55.2,43.8,30.9,29.0,24.9,22.8,78,50,29,30.29,30.14,21,4,21,0.00
2013-3-29,58.4,47.3,32.9,31.6,26.4,23.5,84,47,26,30.33,30.17,16,2,16,0.00
2013-3-30,65.0,54.8,45.0,45.4,37.1,26.3,73,52,29,30.24,30.08,12,1,12,0.00
2013-3-31,68.5,57.5,47.8,56.6,51.0,42.5,97,80,64,30.09,29.80,14,2,17,0.32